Regional Weather Roundup
Issued by NWS

Home | Current Version | Previous Version | Graphics & Text | Print | Product List | Glossary On
Versions: 1 2 3 4 5 6 7 8 9 10 11 12 13 14 15 16 17 18 19 20 21 22 23 24 25 26 27 28 29 30 31 32 33 34 35 36 37 38 39 40 41 42 43 44 45 46 47 48 49 50
000
ASUS45 KTFX 290019
RWRMT
MONTANA HOURLY WEATHER ROUNDUP
NATIONAL WEATHER SERVICE GREAT FALLS MT
619 PM MDT MON JUL 28 2014

NOTE: "FAIR" INDICATES FEW OR NO CLOUDS BELOW 12000 FEET WITH NO
SIGNIFICANT WEATHER AND/OR OBSTRUCTIONS TO VISIBILITY.

* THESE STATIONS ARE NOT UNDER NWS QUALITY CONTROL. THEY DO NOT
   REPORT WEATHER SUCH AS PRECIPITATION OR FOG.

MTZ001>007-043-290100-
WEST OF THE DIVIDE
CITY           SKY/WX    TMP DP  RH WIND       PRES   REMARKS
KALISPELL      PTCLDY    90  46  22 VRB6      30.11F
MISSOULA       PTCLDY    93  36  13 N15       30.10F
BUTTE          CLOUDY    84  37  19 SW8       30.26F
MULLAN PASS    PTCLDY    79  39  24 CALM      30.32F
* ESSEX        N/A       90  43  19 N/A        N/A
* LINCOLN      N/A       87  44  22 SE3G11     N/A
* LOOKOUT PASS N/A       86  39  19 W2         N/A
* POLSON       N/A       85  46  26 NW2        N/A
* RONAN APT    PTCLDY    86  48  27 N6         N/A
* SEELEY LAKE  N/A       91  31  12 N3G8       N/A
* THOMP F APT  PTCLDY    79  36  21 N8G14      N/A
* YAAK HILL    N/A      101  43  14 S2         N/A
$$

MTZ008-052>055-290100-
SOUTHWEST MONTANA
CITY           SKY/WX    TMP DP  RH WIND       PRES   REMARKS
BOZEMAN        CLOUDY    82  48  31 S9        30.20F
DILLON         CLOUDY    79  54  42 SW8       30.25F
W YELLOWSTONE  CLOUDY    73  37  27 N9        30.37R
* THREE FORKS  CLOUDY    86  54  33 E8         N/A
* BOULDER HILL N/A       80  40  24 NE6        N/A
* MONIDA PASS  N/A       73  36  26 N17        N/A
* RAYNOLDS PAS N/A       73  71  93 N8         N/A
* WHITEHALL    N/A       86  52  31 SW4        N/A
* WISE RIVER   N/A       85  39  20 SE5G10     N/A
$$

MTZ009>010-012-014-046-048-049-054-290100-
EAST SLOPES AND CENTRAL MONTANA
CITY           SKY/WX    TMP DP  RH WIND       PRES   REMARKS
CUT BANK       PTCLDY    88  43  21 SW6       30.17F
GREAT FALLS    MOCLDY    91  36  14 NE6       30.13F
HELENA         CLOUDY    91  43  19 VRB3      30.12F
MALMSTROM AFB  MOCLDY    91  36  14 N3        30.13F
* CONRAD       PTCLDY    90  50  25 N7         N/A
* DEARBORN     N/A       89  43  20 N10G15     N/A
* EAST GLACIER N/A       82  45  27 S4G10      N/A
* SAINT MARY   N/A       89  45  22 NE5G12     N/A
* SWEET GRASS  N/A       90  39  17 SE10       N/A
* WHITE SULPH  N/A       84  44  25 N2G7       N/A
$$

MTZ011-013-016-021-035-040-045-047-050-051-290100-
NORTH CENTRAL MONTANA
CITY           SKY/WX    TMP DP  RH WIND       PRES   REMARKS
HAVRE          PTCLDY    91  43  19 E20G29    30.12F
LEWISTOWN      CLOUDY    88  43  21 E15       30.20F
* FORT BENTON  MOCLDY    93  41  16 NE7       30.09F
* CHESTER      N/A       88  38  17 E6G12      N/A
* DENTON       N/A       89  44  21 E8         N/A
* JUDITH GAP   N/A       84  43  24 SE9G15     N/A
* LOMA         N/A       95  40  15 NE12G17    N/A
$$

MTZ017>020-022>027-061-062-290100-
NORTHEAST MONTANA
CITY           SKY/WX    TMP DP  RH WIND       PRES   REMARKS
GLASGOW        PTCLDY    90  45  21 SE9       30.17F
GLENDIVE       CLEAR     82  46  28 E9        30.21F
JORDAN         PTCLDY    90  39  17 E9        30.17F
SIDNEY         CLEAR     82  48  31 NE9       30.21F
WOLF POINT     CLEAR     90  46  22 E14       30.18F
* BEAVER HILL  N/A       81  50  34 VRB6       N/A
* CIRCLE       N/A       86  51  30 NE7        N/A
* LINDSAY DVD  N/A       82  47  29 N10        N/A
$$

MTZ028>042-056>058-290100-
SOUTHCENTRAL AND SOUTHEAST MONTANA
CITY           SKY/WX    TMP DP  RH WIND       PRES   REMARKS
BAKER          PTCLDY    82  48  31 E10       30.23F
BILLINGS       PTCLDY    90  46  22 NE17      30.17F
LIVINGSTON     CLOUDY    86  39  19 E8        30.22F
MILES CITY     PTCLDY    86  45  24 NE17      30.18S
* LAUREL APT   MOCLDY    90  46  22 NE8        N/A
* ROUNDUP APT  MOCLDY    90  43  19 NE13       N/A
* ALZADA       N/A       83  47  28 NE8        N/A
* HYSHAM       N/A       87  47  25 E9G19      N/A
* LAME DEER    N/A       83  45  26 E9G14      N/A
* REED POINT   N/A       87  48  26 E2         N/A
* ROSCOE HILL  N/A       80  43  27 E2         N/A
$$

REGIONAL REPORTS...DAKOTAS
CITY           SKY/WX    TMP DP  RH WIND       PRES   REMARKS
WILLISTON      PTCLDY    81  50  34 E7        30.22F
DICKINSON      CLEAR     77  54  45 E7        30.24F
CROSBY         MOCLDY    72  63  73 E5        30.23F
TIOGA          FAIR      73  55  53 SE6       30.27F
WATFORD CITY   CLEAR     77  54  45 E6        30.21F
BISMARCK       FAIR      75  48  39 NE7       30.25F
GRAND FORKS    FAIR      73  54  51 N5        30.19F
FARGO          MOCLDY    73  54  51 N6        30.19F
BUFFALO SD     PTCLDY    79  52  39 E14       30.19F
RAPID CITY     MOCLDY    79  54  42 SE8       30.24F
$$

REGIONAL REPORTS...WYOMING/IDAHO/WASHINGTON
CITY           SKY/WX    TMP DP  RH WIND       PRES   REMARKS
GILLETTE       CLEAR     88  46  23 N13       30.21F
SHERIDAN       PTCLDY    88  48  25 E7        30.18F
YELLOWSTONE LA CLOUDY    70  37  30 CALM      30.50R
SALMON         CLOUDY    84  52  33 W15G22    30.11S
MULLAN PASS    PTCLDY    79  39  24 CALM      30.32S
SAND POINT     CLEAR     91  43  19 CALM      30.04F
SPOKANE        FAIR      97  36  12 W9        30.05F
$$

REGIONAL REPORTS...ALBERTA
CITY           SKY/WX    TMP DP  RH WIND       PRES   REMARKS
CALGARY        FAIR      82  52  35 SE10G17   30.18F
LETHBRIDGE     PTCLDY    82  59  46 E9        30.16F HI  82
MEDICINE HAT   MOCLDY    91  41  17 NE7       30.14F
EDMONTON       FAIR      81  64  56 SE10      30.14F HI  83
WATERTON GATE  N/A       82  45  27 N6         N/A
CARDSTON       N/A       84  54  36 N6         N/A
MILK RIVER     N/A       86  46  25 NE14       N/A
$$

REGIONAL REPORTS...SASKATCHEWAN
CITY           SKY/WX    TMP DP  RH WIND       PRES   REMARKS
SWIFT CURRENT  CLEAR     79  50  36 E10       30.22F
MOOSE JAW      FAIR      79  57  47 NW5       30.23F
REGINA         PTCLDY    77  57  50 NW6       30.22F
VAL MARIE      N/A       79  54  42 NE7        N/A
ASSINIBOIA     N/A       77  48  36 N7         N/A
CORONACH       N/A       79  46  31 N10        N/A

$$



USA.gov is the U.S. government's official web portal to all federal, state and local government web resources and services.